Temp
10 10 10 10 10 10 11 11 12 12 12 13 12 12 11 10 10 10 10 10 10 10 11 11 11 11 12 11 12 15 15 15 15 15 14 14 14 14 14 14 15 14 16 17 18 18 18
9 9 9 10 10 10 10 10 11 12 12 13 13 12 12 10 10 10 10 10 10 10 10 11 11 11 11 10 14 15 15 15 15 15 14 14 14 13 13 14 14 15 15 16 17 18 18
9 9 9 9 9 9 10 10 10 11 12 12 12 12 12 11 10 10 10 10 10 10 10 10 10 11 10 11 14 14 14 14 15 15 14 14 14 14 14 14 15 15 14 15 16 17 17
9 9 9 9 9 9 9 9 9 10 11 12 12 13 12 11 11 10 10 10 10 10 10 10 10 10 9 12 13 14 14 14 15 15 15 16 15 13 14 15 15 15 14 14 17 16 17
8 9 9 8 8 8 9 9 9 9 9 11 12 12 12 11 11 10 10 10 10 10 10 10 10 10 9 12 12 14 13 14 15 15 15 16 16 14 15 14 14 13 13 14 16 17 18
8 8 8 8 7 7 8 8 8 9 9 10 11 12 12 12 11 10 10 10 10 10 10 10 10 10 10 12 13 13 13 14 14 14 14 14 14 13 13 13 13 15 13 14 14 17 16
8 8 8 8 8 7 7 8 8 9 9 9 10 11 12 12 11 10 9 9 8 9 9 10 10 11 13 13 13 13 13 13 13 12 11 12 11 12 13 12 13 12 13 13 15 15 14
7 8 8 7 8 7 7 7 7 8 8 8 9 11 12 12 11 10 9 8 9 10 9 10 10 11 12 12 12 13 13 12 11 11 10 11 10 11 12 11 11 12 12 13 15 15 16
7 7 7 7 7 7 7 7 7 7 7 8 8 10 11 11 10 9 9 10 11 11 9 10 9 10 11 12 12 12 12 11 11 10 10 10 12 13 12 11 11 11 11 12 13 14 14
7 7 7 7 7 6 6 6 7 7 7 7 8 9 11 11 9 9 9 10 10 11 7 10 9 10 11 12 11 13 13 12 11 10 12 12 13 12 11 11 11 11 12 13 13 12 12
7 6 7 6 7 7 6 6 6 6 7 7 8 9 10 10 9 9 10 10 10 10 6 10 9 12 12 11 12 11 13 13 12 10 10 11 10 10 11 11 12 12 13 13 13 12 11
6 6 6 6 7 7 6 6 6 6 6 7 7 8 9 9 10 10 10 10 10 6 7 10 9 10 11 11 12 12 12 13 12 11 11 10 11 11 11 12 12 13 12 12 12 12 12
6 6 6 6 6 7 5 5 5 6 6 7 7 8 8 9 9 10 9 9 8 7 11 10 11 9 11 11 11 12 11 11 11 10 10 10 10 10 12 11 11 12 11 11 12 12 12
6 6 5 6 6 6 6 5 5 5 6 6 7 7 8 10 10 9 10 9 7 10 9 11 10 9 10 10 11 11 11 11 11 9 10 10 10 10 10 11 11 11 12 11 12 12 11
6 6 6 6 6 6 6 6 5 5 6 6 7 7 7 8 10 9 10 9 9 10 11 10 11 10 10 12 12 11 11 11 12 10 10 9 9 10 11 12 12 10 11 12 13 13 12
5 5 5 6 6 6 6 6 5 5 6 7 7 6 8 8 9 10 10 9 9 11 11 11 11 12 12 11 11 10 11 11 11 11 11 10 10 10 11 11 12 12 12 11 10 12 12
5 5 5 5 6 6 6 6 5 5 5 6 6 8 8 8 10 9 9 8 10 11 12 11 12 12 12 11 10 11 11 11 11 11 11 10 8 9 11 10 11 11 11 12 12 11 11
5 5 5 5 5 6 6 6 5 5 6 6 7 7 8 8 9 9 9 11 12 12 11 12 12 13 12 10 9 9 9 10 10 10 10 11 10 9 11 11 13 13 12 12 11 9 12
5 5 5 5 5 5 6 5 5 5 5 5 8 9 8 9 9 9 10 12 12 12 12 13 12 12 12 11 10 9 10 12 11 11 10 11 10 10 11 11 10 10 11 12 13 12 12
5 5 5 5 5 5 5 5 5 5 5 6 8 8 8 8 10 9 10 11 10 12 12 13 12 12 11 11 12 12 11 13 12 13 13 12 10 10 11 12 10 10 12 12 13 12 13
4 5 5 5 5 5 5 5 5 5 5 7 8 9 8 9 9 10 11 12 11 11 12 12 11 12 12 12 12 11 12 13 14 13 11 10 10 10 11 11 10 11 12 12 12 13 13
5 4 5 5 5 5 5 5 5 5 5 7 9 10 10 9 11 11 11 11 12 12 12 12 11 12 12 12 13 12 13 13 13 12 11 10 10 9 10 10 10 11 11 12 13 14 14
5 5 5 5 5 5 5 5 5 5 5 6 7 9 11 10 11 11 11 11 12 13 12 13 12 12 13 13 13 13 13 13 13 12 11 9 10 11 12 12 12 11 11 12 14 15 15
4 5 5 5 5 5 5 5 5 5 5 6 6 6 10 10 11 12 12 12 11 12 12 12 12 12 13 14 13 13 13 12 12 13 11 10 9 10 11 11 14 14 15 15 15 13 13
4 5 5 4 5 5 5 5 5 5 5 5 6 8 10 11 12 12 12 12 11 11 11 11 12 12 12 12 12 13 12 13 12 11 12 12 11 11 13 12 15 14 13 13 13 13 13
4 5 4 4 4 5 5 5 5 5 5 5 7 8 8 11 11 13 12 11 11 10 11 11 11 10 11 12 13 13 13 12 11 12 11 11 12 13 13 13 16 16 14 14 14 15 15
4 4 4 4 4 4 5 5 5 5 5 5 6 8 9 9 11 11 11 10 10 10 9 10 10 10 10 11 12 12 12 12 11 11 12 12 12 12 13 13 12 14 16 14 15 15 13
4 4 4 4 4 4 4 4 5 5 5 5 6 8 8 10 11 11 11 9 9 9 10 10 10 10 11 12 12 12 11 11 12 12 12 12 13 11 11 12 12 15 16 16 15 12 12
4 4 4 4 4 4 4 4 5 5 4 5 7 7 9 9 10 10 11 11 12 11 10 9 10 11 11 12 11 12 12 9 11 12 12 12 13 12 12 12 13 13 15 13 12 11 10
Height
798 793 791 788 784 779 775 774 773 772 772 771 772 772 774 775 776 778 778 778 777 776 776 776 774 775 776 777 771 766 765 765 766 769 772 777 781 783 786 783 779 780 774 771 768 767 766
798 794 790 785 782 778 774 769 768 767 767 767 767 768 769 771 773 774 776 776 776 775 775 775 774 775 776 780 765 765 766 766 768 769 772 775 778 780 783 782 782 775 772 771 767 767 766
798 794 789 785 781 776 771 767 763 762 762 762 762 763 764 767 769 771 773 774 774 774 774 775 775 775 776 768 763 764 765 767 768 769 772 773 776 780 779 779 774 773 776 771 767 766 765
797 793 788 784 779 774 769 765 761 756 756 757 757 758 759 762 765 768 770 772 773 773 773 774 775 775 772 762 762 762 763 766 768 770 771 772 775 778 780 774 774 775 775 777 761 760 760
796 791 787 782 778 773 768 764 759 755 750 750 751 753 754 758 761 765 767 770 771 771 772 774 775 775 769 761 761 760 762 765 767 769 770 771 774 775 776 779 778 777 777 774 767 755 755
795 790 785 780 775 771 766 761 756 751 747 744 745 747 750 751 757 761 765 768 769 770 773 775 774 778 764 760 759 759 759 764 766 768 771 772 773 776 779 781 775 771 777 773 772 757 756
793 788 783 777 772 767 762 757 752 747 744 740 738 741 744 747 751 757 763 767 772 774 770 765 764 761 757 757 757 759 759 763 767 770 777 775 777 771 772 778 776 781 779 775 768 762 765
791 786 780 774 768 764 759 754 749 743 739 737 732 734 738 742 746 752 758 760 762 763 766 760 761 761 757 758 757 758 760 764 769 772 776 779 777 772 772 776 779 779 779 776 766 763 759
789 783 778 772 767 761 755 750 744 740 735 729 727 726 731 736 742 748 752 757 759 761 765 756 754 756 756 758 756 756 757 761 766 774 775 774 765 763 769 772 776 778 783 778 776 770 762
786 780 775 769 764 758 751 746 740 735 731 724 719 720 724 730 739 743 750 756 760 762 777 754 753 748 751 753 754 749 752 757 765 769 766 764 759 765 768 769 773 774 771 771 772 776 772
783 777 771 766 760 754 748 741 735 730 726 721 714 714 718 720 725 738 740 751 759 762 796 747 751 746 746 751 746 748 750 753 757 766 771 761 765 764 764 761 765 765 763 767 767 768 770
779 773 768 762 755 749 743 736 729 724 719 715 712 710 711 710 720 729 737 747 759 782 783 746 746 746 746 747 744 747 750 752 756 759 760 760 756 759 757 754 758 758 765 765 765 768 759
775 770 764 758 750 744 738 732 725 720 712 708 705 705 706 699 712 724 733 746 766 778 737 741 738 746 742 745 745 745 749 752 752 757 756 755 756 757 753 755 755 759 767 768 759 759 742
771 766 760 754 748 740 733 727 720 714 707 703 701 701 704 695 705 719 728 743 763 733 739 732 736 745 744 743 744 746 745 747 745 757 752 751 748 751 750 747 748 752 754 761 753 749 750
768 762 756 750 744 737 730 723 715 708 699 698 697 697 705 693 700 716 722 739 735 729 724 733 737 740 742 735 737 740 740 736 734 747 751 755 752 739 738 734 743 752 750 740 742 734 736
764 758 752 746 740 733 727 721 713 704 697 695 692 695 700 693 699 714 723 726 725 716 720 723 729 727 728 733 739 741 737 731 735 734 737 744 745 736 733 738 739 738 738 749 753 741 730
760 754 748 743 736 731 725 718 711 702 695 693 690 691 695 692 702 714 716 724 718 713 712 720 719 722 725 729 733 730 728 728 725 726 732 744 752 746 737 735 732 739 740 733 734 738 741
757 750 744 739 733 727 722 715 709 700 692 685 685 694 689 695 702 708 712 709 708 710 714 715 717 716 721 727 732 737 735 724 719 724 732 733 737 741 727 720 717 719 723 727 735 748 725
753 747 741 736 730 724 719 712 702 698 694 690 684 685 690 695 696 704 705 705 706 706 709 711 713 715 715 719 728 727 723 709 714 714 720 724 726 727 717 722 726 723 722 717 717 718 718
750 744 738 732 727 721 715 710 701 694 691 689 684 685 689 695 692 699 702 706 710 705 707 706 707 711 714 713 714 712 716 704 705 709 710 718 722 716 704 698 712 717 705 707 712 720 708
748 742 735 730 725 719 712 706 696 690 684 676 676 676 682 685 691 694 699 697 705 707 705 705 709 708 706 706 706 711 706 703 700 706 716 723 713 711 702 701 706 703 697 700 701 693 698
745 740 734 727 723 716 710 704 698 689 678 672 669 667 676 684 684 689 697 696 693 697 701 701 704 701 703 703 698 702 696 697 697 706 711 712 706 707 696 696 694 697 701 695 687 689 690
743 737 732 725 720 715 709 702 694 687 685 681 674 667 667 680 684 691 688 692 691 692 696 693 697 699 695 693 692 694 693 692 692 697 705 711 709 701 681 667 668 687 677 679 677 678 683
740 736 730 724 719 713 708 703 698 692 689 684 677 677 671 680 679 679 684 688 690 692 694 691 694 696 690 687 686 691 691 689 690 689 694 703 707 702 686 676 660 654 648 660 668 680 684
738 733 729 724 719 714 708 703 698 693 686 680 676 673 666 671 676 679 682 685 689 691 692 691 691 689 688 691 689 688 692 689 684 686 686 688 693 692 673 673 656 659 662 666 673 675 674
735 730 727 723 720 714 708 702 695 690 683 677 668 669 671 671 675 672 680 686 688 691 691 688 689 690 691 689 685 682 684 686 691 682 688 692 691 686 679 678 663 653 658 659 669 668 656
733 728 724 721 717 713 709 705 697 690 682 675 669 669 668 672 672 673 677 682 684 689 691 688 688 689 689 684 682 681 681 680 686 689 681 687 686 686 682 680 676 658 654 661 674 663 651
730 725 721 716 712 709 704 700 696 689 684 678 672 670 672 671 673 672 674 680 684 686 686 686 687 683 682 676 677 676 683 684 680 679 681 681 679 686 690 683 690 655 654 658 657 658 656
728 723 719 714 710 706 703 699 694 690 686 682 676 671 671 671 674 673 673 674 674 676 681 685 681 678 674 672 677 671 672 687 680 680 675 678 670 675 674 673 660 656 654 654 655 660 662
Wind_Speed
25 26 28 28 27 30 25 22 23 21 19 18 18 17 14 15 14 13 11 9 6 3 2 2 3 4 5 3 7 1 3 3 9 18 13 5 3 2 3 3 3 6 2 5 6 10 12
25 26 27 28 29 29 29 30 23 23 21 19 19 20 15 16 15 14 12 10 7 5 3 2 3 4 1 4 6 12 5 3 6 12 9 9 5 5 4 4 4 4 5 6 7 12 7
26 26 27 28 29 31 29 30 32 22 23 21 21 20 18 17 15 14 12 10 7 6 5 4 2 2 1 11 4 6 2 6 6 6 4 12 11 2 2 3 3 4 7 7 7 4 6
27 28 28 28 28 31 29 31 32 25 23 23 23 22 22 18 16 14 13 10 9 7 7 5 3 3 6 4 5 16 13 4 8 11 8 5 9 6 5 6 4 4 3 3 3 10 7
29 30 30 29 30 31 30 30 32 29 26 25 26 24 22 21 17 15 14 10 7 5 6 5 3 1 7 3 4 12 12 5 5 7 7 4 4 4 1 3 6 6 8 5 4 7 6
30 31 32 31 30 31 31 31 32 30 28 26 26 26 25 22 19 15 13 9 4 5 5 4 2 1 5 3 4 3 10 10 2 3 3 4 4 3 3 6 11 5 4 3 6 0 4
30 32 32 31 31 33 34 32 33 29 30 31 23 27 27 25 22 18 16 10 4 1 6 7 6 3 1 3 4 3 6 10 3 4 5 0 5 9 13 8 6 5 9 12 7 7 6
30 31 32 33 34 33 34 32 31 31 31 31 29 27 27 26 24 22 23 5 4 3 4 14 9 11 5 4 2 2 12 6 5 6 4 1 11 7 6 6 8 11 13 14 12 9 11
30 30 32 32 35 34 33 32 30 28 30 28 32 27 26 29 26 24 24 13 6 2 2 5 7 8 5 8 5 6 9 5 4 7 7 11 5 7 7 9 9 9 9 11 12 7 14
29 30 32 32 32 32 32 33 31 26 31 32 30 25 27 32 23 21 14 17 8 2 2 5 5 5 6 4 6 13 15 5 4 10 10 12 13 13 10 11 9 17 6 10 11 5 8
30 31 32 31 31 31 32 36 29 28 32 31 26 21 25 41 23 13 13 22 12 4 2 3 2 2 8 9 3 5 14 4 9 7 5 6 6 11 18 18 9 9 6 9 9 7 7
31 32 32 34 31 32 31 33 32 31 38 30 20 23 17 32 24 21 27 28 10 4 7 5 3 5 7 6 2 3 8 7 3 10 12 7 3 6 6 9 14 2 6 11 5 8 13
32 32 30 33 31 31 30 30 34 36 42 23 16 19 21 36 14 35 39 13 5 4 1 6 5 6 8 5 5 6 10 10 7 6 8 8 17 1 3 4 6 10 5 3 6 8 8
31 32 28 31 32 32 32 34 34 38 34 19 12 17 23 27 33 42 28 4 4 4 5 3 4 6 6 7 5 7 8 10 13 3 2 8 6 18 9 7 6 12 13 6 6 4 5
31 30 29 30 31 32 34 35 36 42 34 12 14 8 16 22 47 40 12 4 7 6 6 8 8 5 7 7 3 10 12 11 8 16 8 3 5 3 7 17 8 5 10 19 13 12 5
31 30 29 30 31 31 33 35 38 38 27 14 9 5 11 38 47 26 8 8 5 4 6 4 7 9 8 9 9 8 7 3 12 12 14 4 4 5 4 5 8 12 5 4 6 5 5
31 30 29 29 29 30 31 32 36 34 27 24 6 5 10 35 32 10 6 5 4 4 4 6 7 8 6 6 9 8 5 3 10 8 16 6 4 2 2 9 12 7 12 7 4 6 4
30 30 29 29 29 30 31 32 34 31 27 6 1 2 29 37 9 6 4 6 6 4 4 3 2 9 9 7 8 6 7 7 8 10 11 11 4 5 14 3 8 11 11 16 4 5 6
31 30 28 28 28 29 30 31 35 33 21 9 3 3 33 27 5 8 4 5 1 4 5 6 7 8 10 7 3 8 5 9 12 12 14 10 4 4 4 4 5 7 9 16 16 5 8
30 30 27 27 27 29 30 30 33 32 27 16 3 3 5 6 0 11 12 8 7 5 9 8 4 8 7 7 7 3 5 4 12 12 10 11 4 6 7 4 1 6 14 19 18 10 12
30 30 28 25 26 27 28 31 34 33 30 8 2 4 5 9 7 13 12 6 9 6 6 9 4 11 9 5 8 7 7 4 4 10 5 6 6 9 16 18 12 11 10 20 21 24 13
29 28 27 24 25 27 28 31 32 31 34 5 2 3 4 7 13 13 14 10 8 12 6 5 7 9 12 7 6 5 5 5 5 7 9 6 4 3 8 16 23 19 18 16 23 20 20
29 28 27 25 24 25 27 32 35 30 22 3 6 3 4 13 11 12 10 9 12 5 7 8 11 10 9 11 15 13 4 6 4 9 9 5 2 2 9 11 7 9 26 21 20 18 15
29 26 27 24 25 26 26 29 32 27 20 12 5 3 2 6 11 14 9 10 8 7 6 3 7 9 4 3 4 4 5 5 5 8 11 6 4 2 5 3 1 5 2 16 20 13 12
28 26 26 22 24 24 24 28 30 28 26 22 8 4 0 4 10 11 10 4 6 6 10 14 7 5 3 3 2 2 0 3 6 7 14 6 5 3 3 3 2 5 6 9 9 10 16
27 26 24 23 23 24 24 27 30 29 30 27 15 3 2 4 8 7 11 5 3 4 2 3 1 3 3 3 3 4 4 4 3 2 3 3 2 2 4 3 4 2 9 11 13 5 16
27 25 24 23 22 22 23 24 28 28 30 30 10 8 2 3 1 4 3 5 5 2 1 0 2 3 8 6 6 4 4 2 3 6 4 3 3 5 4 2 6 3 2 7 5 5 7
26 24 24 23 22 22 24 25 26 27 30 30 17 7 3 2 0 3 3 4 3 3 3 3 2 3 4 5 3 3 3 5 2 2 4 5 4 3 2 1 4 1 1 5 3 2 3
25 24 22 23 22 22 23 24 25 25 27 27 6 10 2 3 1 1 3 3 4 5 4 3 2 1 3 3 2 2 2 2 5 2 2 3 5 4 7 5 3 3 2 1 2 4 2
Wind_Direction
346 339 335 335 335 340 340 284 281 273 272 267 256 246 246 241 243 247 251 251 247 226 237 205 188 169 155 218 253 134 86 107 163 193 192 182 191 151 223 252 272 233 258 278 276 269 275
350 348 343 341 334 329 334 330 278 273 268 263 260 242 242 239 235 240 245 245 244 226 223 226 196 189 146 230 242 235 221 120 134 170 190 171 203 207 287 249 227 295 289 277 261 261 263
347 343 345 341 339 333 329 330 325 277 270 264 254 242 243 241 231 231 237 240 239 233 221 229 226 189 247 241 208 198 149 251 232 184 151 213 209 189 201 274 265 267 294 290 240 236 245
349 345 344 338 337 336 333 327 325 330 276 266 252 246 238 233 231 229 227 232 238 241 214 216 223 165 247 262 244 251 260 254 200 212 211 180 202 216 252 317 313 283 248 264 238 194 229
347 342 339 338 337 335 330 331 324 322 324 270 259 247 233 232 224 225 220 223 236 225 208 200 185 132 267 303 218 230 235 174 168 191 209 206 153 204 217 244 272 196 255 235 316 220 230
346 340 335 334 334 330 329 325 327 316 314 318 263 252 237 220 216 213 208 202 199 180 171 159 350 325 256 227 194 225 204 194 132 118 70 179 158 198 170 201 230 249 259 247 219 161 298
343 340 337 331 329 328 327 325 323 320 314 315 289 251 235 222 204 197 174 132 64 316 218 201 195 235 264 206 159 162 161 131 108 86 170 263 202 204 213 225 252 313 296 279 298 303 336
340 338 337 332 328 325 323 321 319 320 317 303 301 250 232 214 198 188 179 163 198 149 251 235 238 245 279 11 168 168 162 146 153 193 131 305 242 220 211 211 239 252 265 273 276 275 294
337 335 336 333 328 323 321 321 317 317 321 303 293 249 231 209 189 178 185 190 155 38 277 269 203 222 221 193 220 207 161 144 168 185 180 217 211 209 222 237 238 240 240 260 264 295 282
336 335 335 333 325 325 323 325 318 313 326 317 306 274 230 199 166 172 191 199 180 93 341 235 194 240 172 158 250 199 184 146 199 202 218 248 241 237 255 240 216 254 186 233 252 252 258
332 332 333 336 326 322 324 326 318 322 321 318 292 292 228 185 144 168 177 172 162 91 360 142 167 343 150 172 140 195 180 191 196 183 157 219 209 218 232 235 210 244 229 226 237 241 274
329 328 332 331 328 323 327 326 327 328 323 314 281 284 283 168 159 177 155 153 126 62 251 174 127 167 165 199 192 96 172 214 57 211 218 234 186 189 219 241 214 280 241 255 250 236 249
327 328 331 329 330 328 330 329 331 326 323 305 289 285 310 163 156 155 149 130 112 188 82 173 180 172 189 172 206 184 187 195 208 189 221 212 236 245 248 194 175 193 220 263 214 217 241
327 329 330 327 327 327 333 335 329 328 325 304 281 282 271 165 156 155 144 119 154 210 188 113 131 135 189 167 214 203 195 219 217 167 243 213 235 206 203 211 170 194 195 205 238 219 225
326 328 330 328 328 332 336 332 331 332 327 301 304 242 264 177 156 155 145 184 198 200 161 145 141 172 201 203 200 205 223 235 214 207 230 213 257 164 226 211 192 168 214 216 251 267 274
327 326 330 330 332 335 336 333 339 336 336 333 325 104 253 167 151 157 160 194 202 206 128 150 175 190 196 192 193 189 190 222 222 185 191 233 261 215 186 143 221 219 150 191 195 231 240
331 330 329 331 334 337 337 335 338 338 341 333 238 136 205 154 144 161 190 196 194 214 146 161 205 195 214 191 192 197 217 254 203 195 181 176 184 268 119 203 190 198 231 238 210 210 220
332 333 329 334 336 336 338 337 340 340 340 315 131 96 159 155 157 182 169 171 186 173 180 198 220 216 197 193 195 215 215 238 183 148 186 200 196 227 228 216 202 212 221 209 232 255 236
333 336 332 333 337 337 337 340 339 344 351 327 161 203 155 176 160 171 154 186 194 172 181 182 217 206 193 211 215 194 195 223 180 172 173 175 218 240 224 212 203 210 207 213 223 280 214
336 338 335 335 336 339 337 341 340 341 334 322 192 142 132 203 291 174 181 192 183 225 246 203 275 171 199 232 226 249 234 256 187 192 172 155 236 234 234 256 67 202 203 204 210 235 246
338 340 337 337 337 340 339 341 344 340 334 321 157 166 162 186 193 164 185 185 179 205 214 204 242 235 205 230 208 229 219 249 154 147 142 206 245 214 240 250 251 219 221 200 213 219 220
338 339 340 337 341 341 341 343 346 349 347 335 218 151 156 154 169 172 183 214 204 207 228 200 222 215 224 237 216 209 220 200 182 165 194 197 270 239 256 234 240 239 222 237 215 215 239
339 342 342 346 342 342 341 343 349 356 355 330 306 326 125 163 164 179 200 200 220 208 223 227 200 231 247 242 230 250 267 268 212 165 193 191 247 270 286 301 162 225 229 215 216 210 214
339 340 341 347 344 344 343 343 346 348 346 317 283 268 154 165 194 188 161 198 231 208 239 242 206 214 215 18 309 200 245 250 242 213 170 182 183 205 274 313 298 284 163 198 195 186 201
338 341 344 345 344 343 341 341 345 348 347 338 308 263 262 134 183 189 211 192 215 247 245 245 225 219 108 312 276 216 237 235 231 218 204 188 176 266 298 284 227 65 151 164 175 244 244
338 339 342 342 344 341 342 340 344 348 350 346 343 212 271 128 192 148 178 174 187 198 252 229 60 114 143 219 245 209 214 230 252 307 158 176 326 302 332 341 39 36 164 157 175 263 206
336 336 337 338 341 338 340 340 344 350 351 348 291 318 317 99 139 129 158 172 161 138 212 200 249 226 194 191 215 198 211 178 185 175 194 161 189 211 269 290 292 247 135 113 161 255 161
335 335 333 337 337 337 339 341 344 352 351 351 302 300 321 99 199 183 148 135 121 157 182 159 241 202 199 174 186 197 195 215 177 200 179 173 166 206 137 292 316 53 159 185 213 7 141
332 332 333 332 335 335 336 339 343 350 350 349 314 328 319 86 159 267 246 218 180 169 162 185 276 259 264 140 227 244 196 148 170 248 136 227 186 187 178 212 258 305 317 4 151 137 135